Location: Ahausen
(50.4985°N, 8.2722°E)
Time: 01:31:20
(UTC+00:00)

ISS - Visible Passes

Search period start: 05 March 2024 00:00
Search period end: 15 March 2024 00:00
Orbit: 414 x 422 km, 51.6° (Epoch: 04 March)

Date Brightness Start Highest point End Pass type
(mag) Time Alt. Az. Time Alt. Az. Time Alt. Az.
05 Mar -0.4 02:50:49 10° E 02:50:49 10° E 02:50:50 10° E visible
05 Mar -3.1 04:23:46 37° SW 04:24:05 38° SSW 04:27:15 10° SE visible
06 Mar -1.8 03:37:55 24° SE 03:37:55 24° SE 03:39:25 10° SE visible
06 Mar -1.6 05:10:52 11° WSW 05:12:19 13° SW 05:13:56 10° SSW visible
07 Mar -1.9 04:25:07 18° SSW 04:25:07 18° SSW 04:26:56 10° S visible
13 Mar -1.1 19:31:23 10° SSW 19:31:38 11° SSW 19:31:38 11° SSW visible
14 Mar -2.0 18:43:48 10° S 18:46:03 17° SE 18:46:05 17° SE visible
14 Mar -0.7 20:19:01 10° WSW 20:19:02 10° WSW 20:19:02 10° WSW visible
